When you browse on this site, cookies collect data to enhance your experience and personalize the content and advertising you see.
Visit our Privacy Policy to learn more. By continuing to use the site, you agree to this use of cookies and data.
  • En España
  • Lista de países
  • Para 7 días
  • Temperatura del agua
  • Mapa Satelital
  • El tiempo en el mapa
  • Informadores
  • user-avatar
    Iniciar sesión

    Tiempo cada hora Ghazni

    Hoy, 18 Enero, Viernes

    Tiempo Temperatura Precipitaciones Viento Presión Humedad
    00:00 +3°C° 0 mm 1 mps 584 mmHg 39%
    01:00 +3°C° 0 mm 1 mps 584 mmHg 41%
    02:00 +3°C° 0 mm 1 mps 583 mmHg 42%
    03:00 +3°C° 0 mm 1 mps 583 mmHg 44%
    04:00 +2°C° 0 mm 1 mps 583 mmHg 46%
    05:00 +2°C° 0 mm 1 mps 583 mmHg 44%
    06:00 +2°C° 0.1 mm 1 mps 583 mmHg 46%
    07:00 +2°C° 0.1 mm 2 mps 583 mmHg 48%
    08:00 +2°C° 0.1 mm 2 mps 584 mmHg 49%
    09:00 +2°C° 0.2 mm 2 mps 584 mmHg 53%
    10:00 +3°C° 0.2 mm 2 mps 584 mmHg 56%
    11:00 +4°C° 0 mm 2 mps 584 mmHg 57%
    12:00 +4°C° 0 mm 2 mps 584 mmHg 56%
    13:00 +5°C° 0 mm 2 mps 583 mmHg 55%
    14:00 +6°C° 0 mm 1 mps 583 mmHg 54%
    15:00 +5°C° 0.1 mm 2 mps 583 mmHg 57%
    16:00 +5°C° 0.1 mm 2 mps 583 mmHg 59%
    17:00 +1°C° 0 mm 6 mps 583 mmHg 56%
    18:00 +1°C° 0.1 mm 5 mps 583 mmHg 60%
    19:00 +1°C° 0.1 mm 4 mps 583 mmHg 64%
    20:00 +1°C° 0.1 mm 3 mps 583 mmHg 68%
    21:00 +1°C° 0.1 mm 3 mps 583 mmHg 69%
    22:00 +1°C° 0.1 mm 3 mps 584 mmHg 71%
    23:00 +1°C° 0.1 mm 3 mps 584 mmHg 72%

    Mañana, 19 Enero, Sábado

    Tiempo Temperatura Precipitaciones Viento Presión Humedad
    00:00 +1°C° 0.5 mm 3 mps 584 mmHg 75%
    01:00 0°C° 0.5 mm 3 mps 584 mmHg 77%
    02:00 0°C° 0.5 mm 3 mps 584 mmHg 80%
    03:00 +1°C° 0.9 mm 2 mps 583 mmHg 83%
    04:00 +1°C° 0.9 mm 2 mps 583 mmHg 86%
    05:00 -1°C° 0.9 mm 2 mps 583 mmHg 90%
    06:00 -1°C° 0.6 mm 2 mps 583 mmHg 90%
    07:00 -1°C° 0.6 mm 2 mps 583 mmHg 90%
    08:00 -1°C° 0.6 mm 2 mps 583 mmHg 91%
    09:00 +1°C° 0.1 mm 2 mps 584 mmHg 89%
    10:00 +1°C° 0.1 mm 2 mps 584 mmHg 87%
    11:00 +2°C° 0.1 mm 2 mps 584 mmHg 86%
    12:00 +2°C° 0.1 mm 2 mps 584 mmHg 85%
    13:00 +3°C° 0.1 mm 2 mps 583 mmHg 85%
    14:00 +4°C° 0.1 mm 1 mps 583 mmHg 85%
    15:00 +3°C° 0.4 mm 2 mps 583 mmHg 86%
    16:00 +3°C° 0.4 mm 2 mps 583 mmHg 86%
    17:00 +3°C° 0.4 mm 2 mps 583 mmHg 87%
    18:00 +3°C° 0.9 mm 2 mps 583 mmHg 87%
    19:00 +3°C° 0.9 mm 2 mps 583 mmHg 87%
    20:00 +3°C° 0.9 mm 2 mps 584 mmHg 87%
    21:00 +2°C° 0.2 mm 2 mps 583 mmHg 87%
    22:00 +3°C° 0.2 mm 1 mps 583 mmHg 87%
    23:00 +3°C° 0.2 mm 1 mps 583 mmHg 86%

    Pasado mañana, 20 Enero, Domingo

    Tiempo Temperatura Precipitaciones Viento Presión Humedad
    00:00 +2°C° 0.2 mm 1 mps 583 mmHg 87%
    01:00 +1°C° 0.2 mm 2 mps 582 mmHg 87%
    02:00 +1°C° 0.2 mm 2 mps 582 mmHg 88%
    03:00 -1°C° 0.7 mm 2 mps 582 mmHg 88%
    04:00 -1°C° 0.7 mm 2 mps 581 mmHg 89%
    05:00 -1°C° 0.7 mm 2 mps 581 mmHg 89%
    06:00 -1°C° 1.4 mm 2 mps 581 mmHg 91%
    07:00 -1°C° 1.4 mm 2 mps 581 mmHg 93%
    08:00 -1°C° 1.4 mm 2 mps 581 mmHg 96%
    09:00 -1°C° 1.2 mm 2 mps 581 mmHg 96%
    10:00 -1°C° 1.2 mm 3 mps 581 mmHg 97%
    11:00 -2°C° 1.2 mm 4 mps 581 mmHg 97%
    12:00 -1°C° 0.9 mm 5 mps 581 mmHg 96%
    13:00 -2°C° 0.9 mm 6 mps 580 mmHg 95%
    14:00 -1°C° 0.9 mm 7 mps 579 mmHg 94%
    15:00 -2°C° 0.2 mm 6 mps 579 mmHg 93%
    16:00 -2°C° 0.2 mm 4 mps 579 mmHg 92%
    17:00 -1°C° 0.2 mm 3 mps 579 mmHg 91%
    18:00 -3°C° 0 mm 2 mps 579 mmHg 90%
    19:00 -4°C° 0 mm 2 mps 579 mmHg 89%
    20:00 -3°C° 0 mm 1 mps 579 mmHg 88%
    21:00 -4°C° 0 mm 1 mps 579 mmHg 86%
    22:00 -6°C° 0 mm 2 mps 579 mmHg 84%
    23:00 -7°C° 0 mm 2 mps 579 mmHg 82%

    21 Enero, Lunes

    Tiempo Temperatura Precipitaciones Viento Presión Humedad
    00:00 -7°C° 0 mm 2 mps 579 mmHg 81%
    01:00 -8°C° 0 mm 2 mps 579 mmHg 79%
    02:00 -8°C° 0 mm 2 mps 579 mmHg 78%
    03:00 -8°C° 0 mm 2 mps 579 mmHg 76%
    04:00 -9°C° 0 mm 2 mps 579 mmHg 75%
    05:00 -9°C° 0 mm 2 mps 579 mmHg 73%
    06:00 -10°C° 0 mm 3 mps 579 mmHg 72%
    07:00 -10°C° 0 mm 3 mps 579 mmHg 71%
    08:00 -12°C° 0 mm 3 mps 580 mmHg 69%
    09:00 -8°C° 0 mm 2 mps 580 mmHg 68%
    10:00 -7°C° 0 mm 2 mps 581 mmHg 67%
    11:00 -5°C° 0 mm 2 mps 581 mmHg 65%
    12:00 -5°C° 0 mm 2 mps 580 mmHg 64%
    13:00 -2°C° 0 mm 1 mps 580 mmHg 63%
    14:00 -1°C° 0 mm 1 mps 579 mmHg 63%
    15:00 -2°C° 0 mm 1 mps 579 mmHg 65%
    16:00 -4°C° 0 mm 0 mps 578 mmHg 68%
    17:00 -5°C° 0 mm 0 mps 578 mmHg 70%
    18:00 -6°C° 0 mm 1 mps 578 mmHg 70%
    19:00 -7°C° 0 mm 1 mps 579 mmHg 70%
    20:00 -8°C° 0 mm 2 mps 579 mmHg 70%
    21:00 -9°C° 0 mm 2 mps 579 mmHg 69%
    22:00 -9°C° 0 mm 2 mps 579 mmHg 69%
    23:00 -10°C° 0 mm 2 mps 580 mmHg 68%

    22 Enero, Martes

    Tiempo Temperatura Precipitaciones Viento Presión Humedad
    00:00 -10°C° 0 mm 2 mps 579 mmHg 67%
    01:00 -10°C° 0 mm 2 mps 579 mmHg 66%
    02:00 -12°C° 0 mm 2 mps 579 mmHg 65%
    03:00 -12°C° 0 mm 2 mps 579 mmHg 63%
    04:00 -12°C° 0 mm 2 mps 578 mmHg 62%
    05:00 -12°C° 0 mm 2 mps 578 mmHg 60%
    06:00 -12°C° 0 mm 2 mps 578 mmHg 59%
    07:00 -12°C° 0 mm 2 mps 579 mmHg 57%
    08:00 -13°C° 0 mm 2 mps 579 mmHg 56%
    09:00 -10°C° 0 mm 2 mps 579 mmHg 54%
    10:00 -7°C° 0 mm 1 mps 579 mmHg 52%
    11:00 -6°C° 0 mm 1 mps 580 mmHg 51%
    12:00 -4°C° 0 mm 1 mps 579 mmHg 52%
    13:00 -3°C° 0 mm 1 mps 579 mmHg 54%
    14:00 -3°C° 0 mm 1 mps 578 mmHg 55%
    15:00 -4°C° 0 mm 1 mps 578 mmHg 59%
    16:00 -6°C° 0 mm 1 mps 577 mmHg 63%
    17:00 -7°C° 0 mm 1 mps 577 mmHg 68%
    18:00 -7°C° 0 mm 1 mps 578 mmHg 66%
    19:00 -8°C° 0 mm 1 mps 578 mmHg 65%
    20:00 -8°C° 0 mm 1 mps 579 mmHg 63%
    21:00 -9°C° 0 mm 1 mps 579 mmHg 63%
    22:00 -9°C° 0 mm 1 mps 580 mmHg 62%
    23:00 -9°C° 0 mm 1 mps 580 mmHg 62%

    23 Enero, Miércoles

    Tiempo Temperatura Precipitaciones Viento Presión Humedad
    00:00 -9°C° 0 mm 1 mps 580 mmHg 61%
    01:00 -9°C° 0 mm 1 mps 580 mmHg 61%
    02:00 -12°C° 0 mm 2 mps 580 mmHg 61%
    03:00 -12°C° 0 mm 2 mps 580 mmHg 60%
    04:00 -12°C° 0 mm 2 mps 580 mmHg 60%
    05:00 -12°C° 0 mm 2 mps 580 mmHg 60%
    06:00 -12°C° 0 mm 2 mps 580 mmHg 59%
    07:00 -12°C° 0 mm 2 mps 581 mmHg 59%
    08:00 -12°C° 0 mm 2 mps 581 mmHg 58%
    09:00 -10°C° 0 mm 2 mps 582 mmHg 58%
    10:00 -8°C° 0 mm 2 mps 583 mmHg 58%
    11:00 -6°C° 0 mm 2 mps 583 mmHg 57%
    12:00 -6°C° 0 mm 2 mps 583 mmHg 59%
    13:00 -5°C° 0 mm 2 mps 582 mmHg 62%
    14:00 -3°C° 0 mm 1 mps 582 mmHg 64%
    15:00 -3°C° 0 mm 1 mps 582 mmHg 67%
    16:00 -4°C° 0 mm 1 mps 582 mmHg 71%
    17:00 -4°C° 0 mm 1 mps 582 mmHg 74%
    18:00 -7°C° 0 mm 2 mps 582 mmHg 74%
    19:00 -8°C° 0 mm 2 mps 582 mmHg 74%
    20:00 -8°C° 0 mm 2 mps 583 mmHg 74%
    21:00 -8°C° 0 mm 2 mps 583 mmHg 76%
    22:00 -8°C° 0 mm 2 mps 583 mmHg 77%
    23:00 -8°C° 0 mm 2 mps 583 mmHg 79%
    Mostrar más